This is the latest recevied weather packets stored in our database for station/object SV1JSO-13. If no packets are shown the sender has not sent any weather packets the latest 10 day(s).
| Time | Temp. | Humidity | Pressure | Rain* | Wind** | Luminosity | Snow |
|---|---|---|---|---|---|---|---|
| 1788591601 | 28.89° C | 35% | 1010.4 hPa | 0 mm | - | 413 W/m² | - |
| 1788591301 | 28.89° C | 35% | 1010.3 hPa | 0 mm | - | 397 W/m² | - |
| 1788591001 | 28.33° C | 36% | 1010.4 hPa | 0 mm | - | 381 W/m² | - |
| 1788590701 | 28.33° C | 36% | 1010.2 hPa | 0 mm | - | 367 W/m² | - |
| 1788590401 | 28.33° C | 37% | 1010.2 hPa | 0 mm | - | 350 W/m² | - |
| 1788590101 | 28.33° C | 37% | 1010.2 hPa | 0 mm | - | 334 W/m² | - |
| 1788589800 | 28.33° C | 37% | 1010.2 hPa | 0 mm | - | 317 W/m² | - |
| 1788589500 | 27.78° C | 38% | 1010.3 hPa | 0 mm | - | 303 W/m² | - |
| 1788589201 | 27.78° C | 38% | 1010.4 hPa | 0 mm | - | 288 W/m² | - |
| 1788588901 | 27.78° C | 38% | 1010.4 hPa | 0 mm | - | 272 W/m² | - |
| 1788588601 | 27.78° C | 39% | 1010.3 hPa | 0 mm | - | 258 W/m² | - |
| 1788588301 | 27.78° C | 39% | 1010.4 hPa | 0 mm | - | 239 W/m² | - |
| 1788588001 | 27.78° C | 39% | 1010.4 hPa | 0 mm | - | 223 W/m² | - |
| 1788587701 | 27.78° C | 39% | 1010.4 hPa | 0 mm | - | 207 W/m² | - |
| 1788587401 | 27.78° C | 39% | 1010.3 hPa | 0 mm | - | 194 W/m² | - |
| 1788587101 | 27.78° C | 39% | 1010.4 hPa | 0 mm | - | 180 W/m² | - |
| 1788586801 | 27.78° C | 40% | 1010.3 hPa | 0 mm | - | 165 W/m² | - |
| 1788586500 | 27.22° C | 42% | 1010.2 hPa | 0 mm | - | 153 W/m² | - |
| 1788586201 | 26.67° C | 45% | 1010.1 hPa | 0 mm | - | 138 W/m² | - |
| 1788585901 | 26.67° C | 46% | 1010.2 hPa | 0 mm | - | 122 W/m² | - |
| 1788585600 | 26.67° C | 46% | 1010 hPa | 0 mm | - | 111 W/m² | - |
| 1788585301 | 26.67° C | 46% | 1010.2 hPa | 0 mm | - | 98 W/m² | - |
| 1788585001 | 26.67° C | 46% | 1010.1 hPa | 0 mm | - | 87 W/m² | - |
| 1788584701 | 26.67° C | 45% | 1010.1 hPa | 0 mm | - | 77 W/m² | - |
| 1788584401 | 26.67° C | 46% | 1010 hPa | 0 mm | - | 69 W/m² | - |
* Rain latest hour (hover to see other rain measurements)
** Current wind speed in m/s (hover to see current wind gust speed)